Preview of NWS' New Version of Forecast
This preview is not operational and should not be used for support decisions.

Regional Weather Roundup (RWR)

Issued by National Weather Service (NWS)

                            
000
ASUS46 KPQR 210010
RWROR 

OREGON REGIONAL WEATHER ROUNDUP
NATIONAL WEATHER SERVICE PORTLAND OR
500 PM PDT TUE AUG 20 2019

NOTE: "FAIR" INDICATES FEW OR NO CLOUDS BELOW 12,000 FEET WITH
NO SIGNIFICANT WEATHER AND/OR OBSTRUCTIONS TO VISIBILITY.

ORZ001>013-210100-
NORTHWEST OREGON

  
CITY           SKY/WX    TMP DP  RH WIND       PRES   REMARKS
ASTORIA        CLOUDY    67  58  72 SW9G23    29.97R                  
6HR MIN TEMP:  65; 6HR MAX TEMP:  69;                                

TILLAMOOK      CLOUDY    70  57  64 SW14      30.01S                  
NEWPORT        CLOUDY    70  57  64 S16       30.04S                  
FLORENCE       PTSUNNY   66  55  68 S6        30.02S                  
PORTLAND       CLOUDY    85  55  35 SW12      29.90R                  
6HR MIN TEMP:  72; 6HR MAX TEMP:  86;                                

VANCOUVER WA   CLOUDY    83  54  36 S3        29.89S                  
6HR MIN TEMP:  71; 6HR MAX TEMP:  85;                                

SCAPPOOSE      CLOUDY    82  58  43 CALM      29.89S                  
6HR MIN TEMP:  71; 6HR MAX TEMP:  84;                                

HILLSBORO      CLOUDY    82  57  42 S9        29.91S                  
6HR MIN TEMP:  72; 6HR MAX TEMP:  85;                                

AURORA         CLOUDY    82  52  35 SW7       29.92S                  
6HR MIN TEMP:  72; 6HR MAX TEMP:  84;                                

MCMINNVILLE    CLOUDY    80  58  46 W15       29.92R                  
6HR MIN TEMP:  72; 6HR MAX TEMP:  83;                                

SALEM          CLOUDY    80  57  45 W10       29.92R                  
6HR MIN TEMP:  73; 6HR MAX TEMP:  85;                                

CORVALLIS      CLOUDY    76  59  55 NW18      29.96R                  
EUGENE         CLOUDY    81  54  39 W15       29.96R                  
6HR MIN TEMP:  74; 6HR MAX TEMP:  84;                                

CRESWELL       SUNNY     82  55  39 NW14      29.93R                  
$$

ORZ021-028-210100-
SOUTHWEST OREGON

  
CITY           SKY/WX    TMP DP  RH WIND       PRES   REMARKS
NORTH BEND     CLOUDY    68  55  63 SW9       30.04F                  
6HR MIN TEMP:  63; 6HR MAX TEMP:  70;                                

BROOKINGS      CLOUDY    64  56  75 SW5       30.08S                  
ROSEBURG       CLOUDY    84  56  38 N8        29.94R                  
6HR MIN TEMP:  74; 6HR MAX TEMP:  87;                                

SEXTON SUMMIT  CLOUDY    75  52  44 VRB6      30.08S                  
6HR MIN TEMP:  70; 6HR MAX TEMP:  81;                                

GRANTS PASS    FAIR      88  50  27 VRB7G14   29.96R                  
MEDFORD        CLOUDY    90  51  26 NW14      29.90S                  
6HR MIN TEMP:  77; 6HR MAX TEMP:  92;                                

$$

ORZ014>016-041-210100-
COLUMBIA GORGE

  
CITY           SKY/WX    TMP DP  RH WIND       PRES   REMARKS
TROUTDALE      CLOUDY    85  55  35 SW9       29.89S                  
6HR MIN TEMP:  74; 6HR MAX TEMP:  87;                                

HOOD RIVER     CLOUDY    82  52  34 NW14G20   29.86S                  
THE DALLES     PTSUNNY   89  55  31 W18       29.82S                  
6HR MIN TEMP:  78; 6HR MAX TEMP:  93; 6HR PCP: TRACE;                

$$

ORZ029>031-041-044-049-050-061>064-502-503-505>511-210100-
EASTERN OREGON

  
CITY           SKY/WX    TMP DP  RH WIND       PRES   REMARKS
MADRAS         PTSUNNY   90  46  22 MISG      29.93S                  
REDMOND        PTSUNNY   91  45  20 NW15      29.93F                  
6HR MIN TEMP:  82; 6HR MAX TEMP:  95;                                

BEND           PTSUNNY   90  46  22 NW15      29.95S                  
PRINEVILLE     MOSUNNY   91  43  18 N9        29.93F                  
KLAMATH FALLS  MOSUNNY   84  36  18 E3        30.04F                  
6HR MIN TEMP:  71; 6HR MAX TEMP:  86;                                

LAKEVIEW       SUNNY     86  37  17 S10       30.08F                  
HERMISTON      PTSUNNY   95  51  22 CALM      29.81F HX  92           
6HR MIN TEMP:  80; 6HR MAX TEMP:  96;                                

PENDLETON      MOSUNNY   94  40  15 N8        29.86S HX  90           
6HR MIN TEMP:  84; 6HR MAX TEMP:  96;                                

JOHN DAY       MOSUNNY   94  38  14 NW12      29.95S HX  90           
MEACHAM        SUNNY     83  43  24 VRB5      30.01S                  
6HR MIN TEMP:  82; 6HR MAX TEMP:  87;                                

LA GRANDE      NOT AVBL                                               
BAKER CITY     SUNNY     95  46  18 NE6       29.91F HX  91           
6HR MIN TEMP:  79; 6HR MAX TEMP:  98;                                

BURNS          SUNNY     94  35  12 VRB5      29.99F                  
6HR MIN TEMP:  76; 6HR MAX TEMP:  94;                                

ROME             N/A     97  28   8 NW7G16    29.95F HX  91           
6HR MIN TEMP:  86; 6HR MAX TEMP:  98;                                

ONTARIO        SUNNY    101  43  13 CALM      29.85F HX  96           
6HR MIN TEMP:  87; 6HR MAX TEMP: 101;                                

$$